Regional Weather Roundup
Issued by NWS

Home | Current Version | Previous Version | Text Only | Print | Product List | Glossary Off
Versions: 1 2 3 4 5 6 7 8 9 10 11 12 13 14 15 16 17 18 19 20 21 22 23 24 25 26 27 28 29 30 31 32 33 34 35 36 37 38 39 40 41 42 43 44 45 46 47 48 49 50

000
ASUS43 KIND 220909
RWRIN

WEATHER ROUNDUP FOR INDIANA
NATIONAL WEATHER SERVICE INDIANAPOLIS IN
500 AM EDT MON SEP 22 2014

NOTE: "FAIR" INDICATES FEW OR NO CLOUDS BELOW 12,000 FEET WITH NO
SIGNIFICANT WEATHER AND/OR OBSTRUCTIONS TO VISIBILITY.

* - STATION DOES NOT REPORT WEATHER SUCH AS PRECIPITATION OR FOG.

+ - STATION NOT QUALITY CONTROLLED BY THE NATIONAL WEATHER SERVICE.
    USE DATA WITH CAUTION...ESPECIALLY DEWPOINT AND RELATIVE
    HUMIDITY OBSERVATIONS.

INZ001>003-010>013-019-020-221000-
NORTHWEST INDIANA

CITY           SKY/WX    TMP DP  RH WIND       PRES   REMARKS
GARY /AIRPORT/ MOCLDY    55  42  62 N13G18    30.18R
KNOX *+        CLOUDY    48  45  89 NE5       30.15R
LA PORTE +     CLOUDY    51  41  69 N12       30.17R
MICHIGAN CITY+ CLOUDY    52  39  62 N9G18     30.17R
MONTICELLO +   CLEAR     44  44 100 NW5       30.15R
RENSSELAER +   CLEAR     45  45 100 W3        30.17R
VALPARAISO     MOCLDY    52  42  69 N8        30.17R

$$

LMZ046-743>745-221000-
SOUTHERN LAKE MICHIGAN

STATION/POSITION TIME  TEMP WIND        PRES
                       AIR  DIR/SP/G
                 (UTC) (F)  (DEG/KT/KT) (MB)
MICHIGAN CITY    0900   54  350/ 21/ 26   N/A

$$

INZ004-005-014>016-021>024-221000-
NORTH CENTRAL INDIANA

CITY           SKY/WX    TMP DP  RH WIND       PRES   REMARKS
GOSHEN         CLOUDY   N/A N/A N/A N10       30.15R
LOGANSPORT +   CLEAR     45  43  93 N5        30.16R
PERU/GRISSOM   CLEAR     46  46 100 N6        30.15R
ROCHESTER +    CLOUDY    46  45  93 N5        30.16R
SOUTH BEND     CLOUDY    48  40  73 N8        30.17R
WARSAW +       CLOUDY    45  41  87 N7        30.14R

$$

INZ006>009-017-018-025>027-221000-
NORTHEAST INDIANA

CITY           SKY/WX    TMP DP  RH WIND       PRES   REMARKS
ANGOLA *+      CLOUDY    45  28  53 N8        30.13R
FORT WAYNE     MOCLDY    44  39  82 NW8       30.14R
HUNTINGTON +   PTCLDY    43  39  88 N5        30.13R

$$

INZ028-029-035-036-043>045-051>053-221000-
WEST CENTRAL INDIANA

CITY           SKY/WX    TMP DP  RH WIND       PRES   REMARKS
GREENCASTLE +  CLEAR     50  46  87 CALM      30.15R
LAFAYETTE      CLEAR     47  46  97 NW3       30.16R
TERRE HAUTE    CLEAR     49  47  93 NW3       30.15R

$$

INZ030>032-037>040-046>048-054>057-064-065-221000-
CENTRAL INDIANA

CITY           SKY/WX    TMP DP  RH WIND       PRES   REMARKS
CP ATTERBURY + CLEAR     50  45  81 CALM      30.14R
FRANKFORT +    CLEAR    N/A N/A N/A NW3       30.16R
INDIANAPOLIS   PTCLDY    51  46  83 N6        30.13S
-EAGLE CREEK   CLEAR     50  45  83 N5        30.13R
KOKOMO *+      CLEAR     46  39  76 N8        30.15R
MARION +       CLEAR     44  40  88 N5        30.14R
MT COMFORT *+  CLEAR     48  45  87 N6        30.14R
SHELBYVILLE    CLEAR     48  44  86 N6        30.13R
ZIONSVILLE +   CLEAR     47  44  88 N5        30.14S

$$

INZ033-034-041-042-049-050-058-059-221000-
EAST CENTRAL INDIANA

CITY           SKY/WX    TMP DP  RH WIND       PRES   REMARKS
MUNCIE         CLEAR     43  40  89 N3        30.13R

$$

INZ060-061-067>069-081>083-085>088-221000-
SOUTHWEST INDIANA

CITY           SKY/WX    TMP DP  RH WIND       PRES   REMARKS
EVANSVILLE     CLEAR     56  50  80 N7        30.14R
WASHINGTON +   CLEAR     48  48 100 N3        30.15R

$$

INZ062-063-066-070>080-084-089>092-221000-
SOUTH CENTRAL AND SOUTHEAST INDIANA

CITY           SKY/WX    TMP DP  RH WIND       PRES   REMARKS
BLOOMINGTON    CLEAR     51  47  86 N3        30.14R
NORTH VERNON + CLEAR     52  52 100 N3        30.13

$$



USA.gov is the U.S. government's official web portal to all federal, state and local government web resources and services.